Content
SEND FEEDBACK

Daily
Averages
Monthly
Summary
United States of America

WILMINGTON, NORTH CAROLINA


Home > North America > United States > North Carolina
Elevation: 72 feet     Latitude: 34 16N     Longitude: 077 54W

WEATHER
 
SELECT A DAY
Number of Records: 208,938;   Date Range: 1/1/95 - 8/12/14
 
SHARE

PRINT THIS DATA

[ ← Previous Day ]
WEATHER ALMANAC - MAY 14, 2013
[ Next Day → ]
[ °C ]   °F
Weather ElementAverageHighLow
Temperature60.3 °F71.1 °F (2:53 pm)46 °F (4:53 am)
Dewpoint39.6 °F46.9 °F (11:53 pm)34 °F (10:53 am)
Humidity49.6 %77 % (1:53 am)28 % (12:53 pm)
Barometer30.20 in30.25 in (8:53 am)30.16 in (1:53 am)
Wind Speed6.2 mph13.8 mph (3:53 pm)
Wind Gust20.7 mph (4:53 pm)
Weather ElementAverage
Visibility10 mi
Wind DirectionESE (104.2 °)

Weather ElementTotal
Precipitation---
Heating Degree Days6.5 (Base 65)
Growing Degree Days8.6 (Base 50)
Averaged from 24 records on May 14, 2013
WEATHER CONDITIONS BREAKOUT
WIND DIRECTION BREAKOUT
WEATHER BY HOUR - MAY 14, 2013
[ °C ]   °F
Local TimeTemperatureDewpointHumidityBarometerVisibilityWind DirectionWind SpeedGust SpeedPrecipitationEventsConditions
1:53 AM48.9 °F42.1 °F77 %30.16 in10.0 miNNE (30°)4.6 mphPartly Cloudy
2:53 AM48.9 °F39.0 °F69 %30.17 in10.0 miNE (40°)6.9 mphClear
3:53 AM48.0 °F39.0 °F71 %30.18 in10.0 miNNE (30°)5.8 mphClear
4:53 AM46.0 °F39.0 °F76 %30.19 in10.0 miNE (40°)5.8 mphClear
5:53 AM46.0 °F37.9 °F73 %30.20 in10.0 miCalmClear
6:53 AM48.0 °F39.9 °F74 %30.22 in10.0 miCalmClear
7:53 AM53.1 °F41.0 °F64 %30.24 in10.0 miCalmClear
8:53 AM59.0 °F36.0 °F42 %30.25 in10.0 miNNE (20°)9.2 mphClear
9:53 AM63.0 °F35.1 °F35 %30.23 in10.0 miNNE (30°)11.5 mphClear
10:53 AM64.9 °F34.0 °F32 %30.25 in10.0 miNNE (30°)4.6 mphClear
11:53 AM66.9 °F34.0 °F30 %30.25 in10.0 miCalmClear
12:53 PM68.0 °F34.0 °F28 %30.25 in10.0 miVariable5.8 mph17.3 mphClear
1:39 PM69.8 °F35.6 °F28 %30.22 in10.0 miNW (310°)8.1 mphClear
1:53 PM69.1 °F35.1 °F29 %30.21 in10.0 miCalmClear
2:53 PM71.1 °F36.0 °F28 %30.19 in10.0 miWest (280°)10.4 mphClear
3:53 PM69.1 °F43.0 °F39 %30.18 in10.0 miSSW (200°)13.8 mphClear
4:53 PM68.0 °F43.0 °F40 %30.17 in10.0 miSouth (190°)9.2 mph20.7 mphClear
5:53 PM68.0 °F43.0 °F40 %30.17 in10.0 miSSE (160°)9.2 mphClear
6:53 PM66.0 °F42.1 °F42 %30.16 in10.0 miSouth (170°)11.5 mphClear
7:53 PM64.0 °F42.1 °F45 %30.17 in10.0 miSSW (200°)8.1 mphClear
8:53 PM62.1 °F43.0 °F50 %30.16 in10.0 miSouth (190°)5.8 mphClear
9:53 PM60.1 °F44.1 °F55 %30.17 in10.0 miSouth (190°)6.9 mphClear
10:53 PM59.0 °F45.0 °F60 %30.16 in10.0 miSSW (200°)5.8 mphClear
11:53 PM59.0 °F46.9 °F64 %30.16 in10.0 miSouth (190°)6.9 mphClear
Hourly data recorded from KILM, located miles away from Wilmington, North Carolina







STORIES FROM OUR PARTNERS